Regional Weather Roundup
Issued by NWS

Home | Current Version | Previous Version | Text Only | Print | Product List | Glossary On
Versions: 1 2 3 4 5 6 7 8 9 10 11 12 13 14 15 16 17 18 19 20 21 22 23 24 25 26 27 28 29 30 31 32 33 34 35 36 37 38 39 40 41 42 43 44 45 46 47 48 49 50
000
ASUS44 KJAN 020210
RWRMS

MISSISSIPPI HOURLY WEATHER ROUNDUP
NATIONAL WEATHER SERVICE JACKSON MS
900 PM CDT TUE SEP 01 2015

NOTE: "FAIR: INDICATES FEW OR NO CLOUDS BELOW 12,000 FEET WITH NO
SIGNIFICANT WEATHER AND/OR OBSTRUCTIONS TO VISIBILITY.

MSZ001>002-007>008-010>013-018>021-025>028-034>036-020300-
NORTHWEST MISSISSIPPI

CITY           SKY/WX    TMP DP  RH WIND       PRES   REMARKS
CLARKSDALE     FAIR      79  72  78 E3        30.07R
CLEVELAND      MOCLDY    79  78  96 CALM      30.05R
GREENWOOD      MOCLDY    78  70  76 NE3       30.05R
GREENVILLE     CLOUDY    79  70  74 NE3       30.04R
OLIVE BRANCH   CLEAR     79  75  89 E5        30.08R
OXFORD         FAIR      75  72  88 CALM      30.10R
$$

MSZ003>006-009-014>017-022>024-029>033-037>039-020300-
NORTHEAST MISSISSIPPI

CITY           SKY/WX    TMP DP  RH WIND       PRES   REMARKS
COLUMBUS AFB   PTCLDY    76  71  83 CALM      30.06R
CORINTH        FAIR      75  72  88 CALM      30.08R
GOLDN TRIANGLE PTCLDY    79  66  65 NE3       30.06R
STARKVILLE     FAIR      73  68  83 CALM      30.07R
TUPELO         CLOUDY    79  71  76 CALM      30.07R
$$

MSZ040-058-020300-
CENTRAL MISSISSIPPI

CITY           SKY/WX    TMP DP  RH WIND       PRES   REMARKS
JACKSON INTL   LGT RAIN  75  71  87 NE9       30.06R
JACKSON HAWKNS CLOUDY    75  72  90 NE6       30.07R
MERIDIAN KEY   PTCLDY    76  73  91 CALM      30.05R
MERIDIAN NAS   MOCLDY    80  71  74 CALM      30.06R
VICKSBURG      CLOUDY    82  69  64 N7        30.05R
$$

MSZ059>079-020300-
SOUTH MISSISSIPPI

CITY           SKY/WX    TMP DP  RH WIND       PRES   REMARKS
BROOKHAVEN     FAIR      81  70  69 CALM      30.07R
HATTIESBURG    PTCLDY    83  65  54 S5        30.05R
MCCOMB         MOCLDY    82  67  60 CALM      30.05S
NATCHEZ        MOCLDY    75  68  78 CALM      30.06R
PINE BELT      PTCLDY    81  64  57 SW3       30.06R
$$

MSZ080>082-020300-
COASTAL MISSISSIPPI

CITY           SKY/WX    TMP DP  RH WIND       PRES   REMARKS
BAY ST LOUIS   CLEAR     73  68  83 CALM      30.04R
BILOXI         PTCLDY    80  72  75 W2        30.03R
PASCAGOULA     PTCLDY    74  72  93 CALM      30.04R
GULFPORT       PTCLDY    79  72  79 CALM      30.03R
$$


USA.gov is the U.S. government's official web portal to all federal, state and local government web resources and services.